TimeCST,TemperatureF,Dew PointF,Humidity,Sea Level PressureIn,VisibilityMPH,Wind Direction,Wind SpeedMPH,Gust SpeedMPH,PrecipitationIn,Events,Conditions,WindDirDegrees,DateUTC
1:26 AM,21.2,19.4,93,29.97,2.0,East,3.5,-,0.00,Snow,Light Snow,80,2013-03-05 07:26:00
1:40 AM,21.2,19.4,93,29.97,1.0,NE,5.8,-,0.01,Snow,Light Snow,50,2013-03-05 07:40:00
1:49 AM,21.2,19.4,93,29.97,0.8,NE,4.6,-,0.01,Snow,Light Snow,50,2013-03-05 07:49:00
1:53 AM,21.9,19.9,92,30.05,1.0,ENE,5.8,-,0.01,Snow,Light Snow,60,2013-03-05 07:53:00
2:05 AM,21.2,19.4,93,29.98,0.8,ENE,5.8,-,0.01,Snow,Light Snow,60,2013-03-05 08:05:00
2:13 AM,21.2,19.4,93,29.98,1.0,ENE,5.8,-,N/A,Snow,Light Snow,60,2013-03-05 08:13:00
2:53 AM,21.2,19.4,93,29.98,1.8,ENE,5.8,-,N/A,Snow,Light Snow,70,2013-03-05 08:53:00
3:28 AM,21.2,19.4,93,29.97,1.0,NE,6.9,-,0.01,Snow,Light Snow,50,2013-03-05 09:28:00
3:53 AM,21.9,19.0,89,30.06,1.0,NE,6.9,-,0.02,Snow,Light Snow,50,2013-03-05 09:53:00
4:53 AM,21.9,19.0,89,30.07,1.2,NE,6.9,-,0.03,Snow,Light Snow,40,2013-03-05 10:53:00
5:53 AM,21.9,19.0,89,30.10,1.5,NE,4.6,-,0.01,Snow,Light Snow,40,2013-03-05 11:53:00
6:22 AM,21.2,19.4,93,30.03,1.8,NNE,5.8,-,0.00,Snow,Light Snow,30,2013-03-05 12:22:00
6:50 AM,21.2,19.4,93,30.04,2.0,NNE,8.1,-,0.01,Snow,Light Snow,20,2013-03-05 12:50:00
6:53 AM,21.2,17.6,86,30.04,2.5,NNE,8.1,-,N/A,Snow,Light Snow,20,2013-03-05 12:53:00
7:02 AM,21.2,17.6,86,30.04,2.5,NNE,8.1,-,0.00,Snow,Light Snow,20,2013-03-05 13:02:00
7:14 AM,21.2,17.6,86,30.05,1.2,NNE,8.1,-,0.00,Snow,Light Snow,20,2013-03-05 13:14:00
7:34 AM,21.2,17.6,86,30.06,2.5,NNE,6.9,-,0.00,Snow,Light Snow,20,2013-03-05 13:34:00
7:53 AM,21.9,18.0,85,30.14,2.0,NNE,8.1,-,0.00,Snow,Light Snow,20,2013-03-05 13:53:00
8:03 AM,21.2,17.6,86,30.07,1.2,NNE,8.1,-,0.00,Snow,Light Snow,20,2013-03-05 14:03:00
8:17 AM,21.2,17.6,86,30.08,1.0,North,8.1,-,0.01,Snow,Light Snow,10,2013-03-05 14:17:00
8:53 AM,21.9,18.0,85,30.17,1.5,NNE,10.4,-,0.01,Snow,Light Snow,20,2013-03-05 14:53:00
9:00 AM,21.2,17.6,86,30.09,1.5,NNE,9.2,-,N/A,Snow,Light Snow,20,2013-03-05 15:00:00
9:32 AM,23.0,17.6,80,30.10,2.0,NNE,8.1,-,0.00,Snow,Light Snow,20,2013-03-05 15:32:00
9:53 AM,23.0,19.0,85,30.18,2.0,NNE,9.2,-,0.00,Snow,Light Snow,30,2013-03-05 15:53:00
10:23 AM,24.8,19.4,80,30.11,3.0,NNE,6.9,-,0.00,Snow,Light Snow,20,2013-03-05 16:23:00
10:35 AM,24.8,19.4,80,30.11,2.5,NNE,9.2,-,0.00,Snow,Light Snow,30,2013-03-05 16:35:00
10:53 AM,24.1,19.0,81,30.19,3.0,NNE,9.2,-,0.00,Snow,Light Snow,30,2013-03-05 16:53:00
11:34 AM,24.8,19.4,80,30.13,5.0,North,8.1,-,0.00,Snow,Light Snow,10,2013-03-05 17:34:00
11:53 AM,26.1,19.0,75,30.21,6.0,NNE,5.8,-,0.00,Snow,Light Snow,20,2013-03-05 17:53:00
12:39 PM,26.6,19.4,74,30.14,2.5,NNE,10.4,-,0.00,Snow,Light Snow,20,2013-03-05 18:39:00
12:53 PM,26.1,19.9,78,30.22,1.8,NNE,8.1,-,0.00,Snow,Light Snow,20,2013-03-05 18:53:00
1:17 PM,26.6,19.4,74,30.15,2.0,NNE,10.4,-,0.00,Snow,Light Snow,20,2013-03-05 19:17:00
1:26 PM,24.8,19.4,80,30.15,2.5,North,11.5,-,0.00,Snow,Light Snow,360,2013-03-05 19:26:00
1:37 PM,26.6,19.4,74,30.15,4.0,NNE,11.5,-,0.00,Snow,Light Snow,20,2013-03-05 19:37:00
1:53 PM,26.1,19.9,78,30.22,8.0,NNE,10.4,-,0.00,,Overcast,30,2013-03-05 19:53:00
2:53 PM,27.0,19.0,72,30.24,10.0,NNE,8.1,-,N/A,,Overcast,30,2013-03-05 20:53:00
3:53 PM,27.0,18.0,69,30.26,10.0,North,9.2,-,0.00,,Overcast,10,2013-03-05 21:53:00
4:53 PM,26.1,17.1,69,30.28,10.0,North,9.2,-,0.00,,Overcast,360,2013-03-05 22:53:00
5:53 PM,25.0,16.0,69,30.31,10.0,North,10.4,-,N/A,,Overcast,350,2013-03-05 23:53:00
6:53 PM,24.1,17.1,75,30.32,10.0,North,8.1,-,N/A,,Overcast,360,2013-03-06 00:53:00
7:53 PM,23.0,17.1,78,30.34,10.0,North,5.8,-,N/A,,Overcast,350,2013-03-06 01:53:00
8:53 PM,21.9,17.1,82,30.35,10.0,North,6.9,-,N/A,,Overcast,350,2013-03-06 02:53:00
9:15 PM,21.2,17.6,86,30.27,10.0,North,8.1,-,N/A,,Overcast,360,2013-03-06 03:15:00
9:53 PM,21.9,16.0,78,30.36,10.0,NNE,8.1,-,N/A,,Overcast,20,2013-03-06 03:53:00
10:53 PM,19.9,15.1,81,30.37,10.0,NNW,10.4,-,N/A,,Overcast,330,2013-03-06 04:53:00
11:53 PM,19.9,15.1,81,30.39,10.0,North,6.9,-,N/A,,Overcast,350,2013-03-06 05:53:00